Flag for India Weather past 2 weeks in Kolkata, West Bengal, India

Now
86 °F

Passing clouds.


Feels Like: 102 °F
Forecast: 82 / 97 °F
Wind: 10 mph from South

Location: Calcutta / Dum Dum

Current Time: May 29, 2015 at 2:34:32 AM

Latest Report: May 29, 2015 at 1:50 AM


Visibility: 2 mi

Pressure: 29.56 "Hg

Humidity: 84%

Dew point: 81 °F

Location of KolkataLocation

Historic Weather in Kolkata — Graph

°F

Kolkata temperature yesterday

Maximum temperature yesterday: 99 °F (at 12:20 PM)
Minimum temperature yesterday: 86 °F (at 12:20 AM)
Average temperature yesterday: 91 °F

Past Weeks' High & Low Weather Summary

 TemperatureHumidityPressure
High100 °F (May 14, 12:50 PM)94% (May 16, 10:50 PM)29.80 "Hg (May 16, 10:50 PM)
Low77 °F (May 16, 10:50 PM)40% (May 14, 12:50 PM)29.45 "Hg (May 22, 3:50 PM)
Average89 °F74%29.60 "Hg
* Reported May 14 12:50 AM — May 29 1:20 AM, Kolkata, Weather by CustomWeather, © 2015

Note: Actual official high and low records may vary slightly from our data, if they occured in-between our weather recording intervals... More about our weather records

Advertising

Kolkata weather history for previous 24 hours

 ConditionsComfort  
Time TempWeatherWind HumidityBarometerVisibility
1:20 AM
Fri, May 29
86 °FPassing clouds.10 mph84%29.56 "Hg2 mi
12:50 AM86 °FPassing clouds.10 mph84%29.56 "Hg2 mi
12:20 AM86 °FHaze.9 mph84%29.59 "Hg2 mi
11:50 PM
Thu, May 28
86 °FHaze.7 mph84%29.59 "Hg2 mi
11:20 PM86 °FHaze.6 mph84%29.59 "Hg2 mi
10:50 PM88 °FHaze.7 mph79%29.59 "Hg2 mi
10:20 PM88 °FHaze.9 mph79%29.62 "Hg2 mi
9:50 PM88 °FPassing clouds.9 mph79%29.62 "Hg2 mi
9:20 PM88 °FPassing clouds.10 mph79%29.59 "Hg2 mi
8:50 PM88 °FPassing clouds.9 mph75%29.59 "Hg2 mi
8:20 PM88 °FPassing clouds.12 mph75%29.59 "Hg2 mi
7:50 PM90 °FPassing clouds.12 mph71%29.59 "Hg2 mi
7:20 PM91 °FPassing clouds.15 mph67%29.59 "Hg2 mi
6:50 PM91 °FPassing clouds.14 mph63%29.56 "Hg2 mi
6:20 PM91 °FScattered clouds.12 mph63%29.53 "Hg2 mi
5:50 PM93 °FScattered clouds.14 mph59%29.53 "Hg2 mi
5:20 PM93 °FScattered clouds.14 mph59%29.53 "Hg2 mi
4:50 PM95 °FScattered clouds.14 mph56%29.53 "Hg2 mi
4:20 PM95 °FScattered clouds.14 mph56%29.53 "Hg2 mi
3:50 PM97 °FScattered clouds.14 mph53%29.53 "Hg2 mi
3:20 PM97 °FScattered clouds.14 mph53%29.53 "Hg2 mi
2:50 PM99 °FScattered clouds.14 mph53%29.56 "Hg2 mi
2:20 PM99 °FScattered clouds.14 mph50%29.56 "Hg2 mi
1:50 PM99 °FScattered clouds.12 mph50%29.59 "Hg2 mi
1:20 PM99 °FScattered clouds.10 mph50%29.59 "Hg2 mi
12:50 PM99 °FScattered clouds.12 mph50%29.59 "Hg2 mi
12:20 PM99 °FScattered clouds.13 mph50%29.59 "Hg2 mi
11:50 AM97 °FScattered clouds.16 mph53%29.62 "Hg2 mi
11:20 AM97 °FScattered clouds.15 mph53%29.62 "Hg2 mi
10:50 AM97 °FScattered clouds.13 mph53%29.65 "Hg2 mi
10:20 AM95 °FScattered clouds.14 mph63%29.65 "Hg2 mi
9:50 AM95 °FScattered clouds.15 mph67%29.65 "Hg2 mi
9:20 AM93 °FScattered clouds.12 mph71%29.65 "Hg2 mi
8:50 AM91 °FScattered clouds.10 mph75%29.65 "Hg2 mi
8:20 AM91 °FScattered clouds.12 mph75%29.65 "Hg2 mi
7:50 AM91 °FScattered clouds.6 mph75%29.65 "Hg2 mi
7:20 AM90 °FScattered clouds.5 mph79%29.65 "Hg2 mi
6:50 AM88 °FScattered clouds.3 mph84%29.62 "Hg2 mi
6:20 AM88 °FScattered clouds.3 mph84%29.62 "Hg2 mi
5:50 AM86 °FScattered clouds.3 mph89%29.59 "Hg2 mi
5:20 AM86 °FPartly cloudy.3 mph89%29.56 "Hg2 mi
4:50 AM86 °FPartly cloudy.3 mph89%29.56 "Hg2 mi
4:20 AM86 °FPassing clouds.5 mph89%29.56 "Hg2 mi
3:50 AM86 °FPassing clouds.6 mph84%29.56 "Hg2 mi
3:20 AM86 °FPassing clouds.9 mph84%29.53 "Hg2 mi
2:50 AM86 °FPassing clouds.6 mph84%29.53 "Hg2 mi
2:20 AM86 °FPassing clouds.5 mph84%29.53 "Hg2 mi
Weather by CustomWeather, © 2015

See weather overviewHow to use our weather pages